Tracking 30918 objects as of 2-Jul-2025
HD Live streaming from Space Station
objects crossing your sky now

COSMOS 2251 DEB

Track COSMOS 2251 DEB now!
10-day predictions


NORAD ID: 35717
Int'l Code: 1993-036AQN
Perigee: 720.9 km
Apogee: 830.4 km
Inclination: 74.2 °
Period: 100.2 minutes
Semi major axis: 7146 km
RCS: 0.003 m2 (small)
Launch date: June 16, 1993
Source: Commonwealth of Independent States (former USSR) (CIS)
Launch site: PLESETSK MISSILE AND SPACE COMPLEX (PKMTR)

Note: This is SATELLITE DEBRIS
Your satellite tracking list
FORTE
Track 1 satellite(s)




NASA's NSSDC Master Catalog

Two Line Element Set (TLE):
1 35717U 93036AQN 25180.66799050  .00002331  00000-0  76857-3 0  9997
2 35717  74.1604 160.8936 0076633  65.0862 295.8232 14.36975249717132
Source of the keplerian elements: AFSPC